Cathedral Point, British Columbia

9:15 PM PDT on August 18, 2017 (GMT -0700)
Cathedral Point

Weather History for CWME - October, 2013

Change the Weather History Date:

Wednesday, October 23, 2013

  Actual Average Record
Temperature  
Mean Temperature 54 °F -  
Max Temperature 59 °F - - ()
Min Temperature 48 °F - - ()
Degree Days  
Heating Degree Days 11    
Growing Degree Days 4 (Base 50)    
Moisture  
Dew Point 46 °F    
Average Humidity 81    
Maximum Humidity 90    
Minimum Humidity 62    
Precipitation  
Precipitation 0.00 in - - ()
Sea Level Pressure  
Sea Level Pressure 30.02 in    
Wind  
Wind Speed 12 mph ()    
Max Wind Speed 23 mph    
Max Gust Speed 31 mph    
T = Trace of Precipitation, MM = Missing Value Source: Averaged Metar Reports

Daily Weather History Graph

Daily Weather History Graph

Search for Another Location

Airport or City:

Trip Planner

Search our weather history database for the weather conditions in past years. The results will help you decide how hot, cold, wet, or windy it might be!

Date:

Astronomy

Oct. 23, 2013 Rise Set
Actual Time 8:09 AM PDT 6:17 PM PDT
Civil Twilight 7:34 AM PDT 6:52 PM PDT
Nautical Twilight 6:55 AM PDT 7:31 PM PDT
Astronomical Twilight 6:16 AM PDT 8:11 PM PDT
Moon 9:35 PM PDT (10/23) 12:51 PM PDT (10/23)
Length of Visible Light 11h 17m
Length of Day
10h 07m
Waning Gibbous, 78% of the Moon is Illuminated
Oct 23
Waning Gibbous
Oct 26
Last Quarter
Nov 3
New
Nov 9
First Quarter
Nov 17
Full

Hourly Weather History & Observations

Time (PDT) Temp. Dew Point Humidity Pressure Visibility Wind Dir Wind Speed Gust Speed Precip Events Conditions
12:00 AM 50.9 °F 47.7 °F 89% 30.05 in - East 12.7 mph - N/A   Unknown
1:00 AM 50.9 °F 47.8 °F 89% 30.05 in - ENE 13.8 mph 23.0 mph N/A   Unknown
2:00 AM 51.3 °F 47.3 °F 86% 30.04 in - ENE 18.4 mph 24.2 mph N/A   Unknown
3:00 AM 50.4 °F 47.1 °F 89% 30.04 in - ENE 13.8 mph 19.6 mph N/A   Unknown
4:00 AM 50.2 °F 47.3 °F 90% 30.04 in - ENE 20.7 mph 27.6 mph N/A   Unknown
5:00 AM 51 °F 46 °F 79% 30.03 in - NE 23.0 mph - -  
5:00 AM 50.9 °F 46.4 °F 85% 30.03 in - NE 23.0 mph 31.1 mph N/A   Unknown
6:00 AM 49.8 °F 46.0 °F 87% 30.03 in - NE 19.6 mph 25.3 mph N/A   Unknown
7:00 AM 49.6 °F 46.0 °F 87% 30.02 in - ENE 20.7 mph - N/A   Unknown
8:00 AM 49.3 °F 45.5 °F 87% 30.03 in - ENE 19.6 mph 26.5 mph N/A   Unknown
9:00 AM 49.6 °F 45.7 °F 86% 30.02 in - NE 18.4 mph 27.6 mph N/A   Unknown
11:00 AM 51 °F 45 °F 72% 30.03 in - ENE 20.7 mph - -  
11:00 AM 50.5 °F 44.8 °F 81% 30.03 in - ENE 20.7 mph - N/A   Unknown
12:00 PM 51.6 °F 45.0 °F 78% 30.03 in - East 12.7 mph 21.9 mph N/A   Unknown
1:00 PM 55.2 °F 43.9 °F 66% 30.03 in - ENE 9.2 mph 18.4 mph N/A   Unknown
2:00 PM 55.2 °F 46.4 °F 72% 30.02 in - NNE 2.3 mph - N/A   Unknown
3:00 PM 54.1 °F 46.0 °F 74% 30.01 in - NE 5.8 mph - N/A   Unknown
4:00 PM 58.8 °F 47.5 °F 66% 30.00 in - Calm Calm - N/A   Unknown
5:00 PM 55 °F 46 °F 62% 29.99 in - NE 2.3 mph - -  
5:00 PM 55.4 °F 45.5 °F 69% 29.99 in - NE 2.3 mph - N/A   Unknown
6:00 PM 53.4 °F 46.0 °F 76% 29.99 in - Calm Calm - N/A   Unknown
7:00 PM 50.2 °F 46.6 °F 87% 30.00 in - East 1.2 mph - N/A   Unknown
8:00 PM 49.8 °F 46.4 °F 88% 30.00 in - ENE 2.3 mph - N/A   Unknown
9:00 PM 50.0 °F 46.0 °F 86% 30.00 in - NE 9.2 mph - N/A   Unknown
10:00 PM 50.0 °F 46.6 °F 88% 30.01 in - ENE 9.2 mph - N/A   Unknown
11:00 PM 49 °F 46 °F 87% 30.02 in - NE 4.6 mph - -  
11:00 PM 48.9 °F 46.2 °F 90% 30.02 in - NE 4.6 mph - N/A   Unknown